,,,PA_Meas_PMT16A,,PR_Meas_QMR101_102,,RH_Meas_QMH101,,SR_Meas_QMS101,,TA_Meas_QMH101,,GenWind,,GenWind,
date,time,status,PA,status,PR,status,RH,status,SR,status,TA,status,DirAvg,status,SpdAvg,
2008-04-05, 00:00:04,VALID,1009.69,VALID,0,VALID,94.7195,VALID,0,VALID,24.0058,VALID,127,VALID,0.252344,
2008-04-05, 00:01:04,VALID,1009.68,VALID,0,VALID,94.7042,VALID,0.105969,VALID,24.0058,VALID,127,VALID,0.135547,
2008-04-05, 00:02:04,VALID,1009.69,VALID,0,VALID,94.7119,VALID,0.105969,VALID,23.9845,VALID,127,VALID,0.20625,
2008-04-05, 00:03:04,VALID,1009.68,VALID,0,VALID,94.6966,VALID,0.105969,VALID,24.0253,VALID,113,VALID,0.831641,
2008-04-05, 00:04:04,VALID,1009.68,VALID,0,VALID,94.6661,VALID,0.211938,VALID,24.0235,VALID,112,VALID,0.858984,
2008-04-05, 00:05:04,VALID,1009.69,VALID,0,VALID,94.5136,VALID,0.105969,VALID,24.0448,VALID,111,VALID,0.757031,
2008-04-05, 00:06:04,VALID,1009.67,VALID,0,VALID,94.4145,VALID,0.105969,VALID,24.0429,VALID,143,VALID,0.538281,
2008-04-05, 00:07:04,VALID,1009.66,VALID,0,VALID,94.3534,VALID,0,VALID,24.0643,VALID,108,VALID,0.558984,
2008-04-05, 00:08:04,VALID,1009.64,VALID,0,VALID,94.3229,VALID,0,VALID,24.0643,VALID,99,VALID,0.4625,
2008-04-05, 00:09:04,VALID,1009.65,VALID,0,VALID,94.2619,VALID,0.105969,VALID,24.0624,VALID,102,VALID,0.774609,
2008-04-05, 00:10:04,VALID,1009.61,VALID,0,VALID,94.1857,VALID,0,VALID,24.0643,VALID,76,VALID,0.555469,
2008-04-05, 00:11:04,VALID,1009.6,VALID,0,VALID,94.0942,VALID,0.105969,VALID,24.0235,VALID,64,VALID,0.566797,
2008-04-05, 00:12:04,VALID,1009.62,VALID,0,VALID,94.1094,VALID,0.105969,VALID,24.0235,VALID,87,VALID,0.488281,
2008-04-05, 00:13:04,VALID,1009.64,VALID,0,VALID,94.1018,VALID,0.105969,VALID,24.0643,VALID,77,VALID,0.441406,
2008-04-05, 00:14:04,VALID,1009.64,VALID,0,VALID,94.1018,VALID,0,VALID,24.0058,VALID,77,VALID,0.429297,
2008-04-05, 00:15:04,VALID,1009.69,VALID,0,VALID,94.1171,VALID,0.105969,VALID,23.965,VALID,56,VALID,0.485938,
2008-04-05, 00:16:04,VALID,1009.67,VALID,0,VALID,94.1628,VALID,0.105969,VALID,23.9845,VALID,70,VALID,0.822266,
2008-04-05, 00:17:04,VALID,1009.68,VALID,0,VALID,94.1704,VALID,0.105969,VALID,23.9668,VALID,59,VALID,0.928516,
2008-04-05, 00:18:04,VALID,1009.71,VALID,0,VALID,94.2314,VALID,0.105969,VALID,23.9455,VALID,93,VALID,0.724609,
2008-04-05, 00:19:04,VALID,1009.68,VALID,0,VALID,94.2467,VALID,0.105969,VALID,23.926,VALID,77,VALID,0.498047,
2008-04-05, 00:20:04,VALID,1009.67,VALID,0,VALID,94.2772,VALID,0.105969,VALID,23.926,VALID,92,VALID,0.401953,
2008-04-05, 00:21:04,VALID,1009.67,VALID,0,VALID,94.3153,VALID,0.105969,VALID,23.9065,VALID,97,VALID,0.344141,
2008-04-05, 00:22:04,VALID,1009.66,VALID,0,VALID,94.3382,VALID,0.105969,VALID,23.9065,VALID,99,VALID,0.464063,
2008-04-05, 00:23:04,VALID,1009.66,VALID,0,VALID,94.3382,VALID,0,VALID,23.926,VALID,81,VALID,0.380469,
2008-04-05, 00:24:04,VALID,1009.66,VALID,0,VALID,94.3077,VALID,0.105969,VALID,23.9278,VALID,123,VALID,0.355078,
2008-04-05, 00:25:04,VALID,1009.68,VALID,0,VALID,94.2924,VALID,0.105969,VALID,23.9278,VALID,121,VALID,0.261328,
2008-04-05, 00:26:04,VALID,1009.66,VALID,0,VALID,94.3153,VALID,0,VALID,23.9278,VALID,120,VALID,0.674219,
2008-04-05, 00:27:04,VALID,1009.65,VALID,0,VALID,94.3229,VALID,0,VALID,23.9473,VALID,113,VALID,1.01406,
2008-04-05, 00:28:04,VALID,1009.61,VALID,0,VALID,94.2848,VALID,0,VALID,23.9668,VALID,130,VALID,0.580469,
2008-04-05, 00:29:04,VALID,1009.61,VALID,0,VALID,94.1704,VALID,0,VALID,23.9473,VALID,132,VALID,0.684375,
2008-04-05, 00:30:04,VALID,1009.6,VALID,0,VALID,94.0713,VALID,0,VALID,23.9473,VALID,144,VALID,0.579687,
2008-04-05, 00:31:04,VALID,1009.59,VALID,0,VALID,94.0408,VALID,0,VALID,23.9278,VALID,139,VALID,0.601563,
2008-04-05, 00:32:04,VALID,1009.59,VALID,0,VALID,94.0332,VALID,0,VALID,23.9084,VALID,141,VALID,0.439453,
2008-04-05, 00:33:04,VALID,1009.59,VALID,0,VALID,94.0637,VALID,0,VALID,23.8889,VALID,130,VALID,0.511719,
2008-04-05, 00:34:04,VALID,1009.6,VALID,0,VALID,94.0713,VALID,0,VALID,23.9102,VALID,138,VALID,0.364844,
2008-04-05, 00:35:04,VALID,1009.63,VALID,0,VALID,94.056,VALID,0,VALID,23.8694,VALID,138,VALID,0.327734,
2008-04-05, 00:36:04,VALID,1009.62,VALID,0,VALID,94.1171,VALID,0,VALID,23.8907,VALID,138,VALID,0.0808594,
2008-04-05, 00:37:04,VALID,1009.62,VALID,0,VALID,94.1399,VALID,0,VALID,23.8304,VALID,138,VALID,0.241797,
2008-04-05, 00:38:04,VALID,1009.61,VALID,0,VALID,94.2086,VALID,0,VALID,23.8712,VALID,138,VALID,0.233984,
2008-04-05, 00:39:04,VALID,1009.62,VALID,0,VALID,94.2238,VALID,0,VALID,23.8304,VALID,138,VALID,0,
2008-04-05, 00:40:04,VALID,1009.6,VALID,0,VALID,94.2543,VALID,0,VALID,23.8304,VALID,138,VALID,0,
2008-04-05, 00:41:04,VALID,1009.57,VALID,0,VALID,94.2696,VALID,0,VALID,23.8109,VALID,138,VALID,0,
2008-04-05, 00:42:04,VALID,1009.56,VALID,0,VALID,94.3534,VALID,0,VALID,23.7914,VALID,138,VALID,0,
2008-04-05, 00:43:04,VALID,1009.55,VALID,0,VALID,94.4221,VALID,0,VALID,23.8127,VALID,138,VALID,0,
2008-04-05, 00:44:04,VALID,1009.54,VALID,0,VALID,94.506,VALID,0,VALID,23.7525,VALID,138,VALID,0.269531,
2008-04-05, 00:45:04,VALID,1009.53,VALID,0,VALID,94.5975,VALID,0,VALID,23.772,VALID,138,VALID,0.201953,
2008-04-05, 00:46:04,VALID,1009.53,VALID,0,VALID,94.6432,VALID,0,VALID,23.7525,VALID,138,VALID,0.0828125,
2008-04-05, 00:47:04,VALID,1009.52,VALID,0,VALID,94.689,VALID,0,VALID,23.7738,VALID,138,VALID,0.140625,
2008-04-05, 00:48:04,VALID,1009.54,VALID,0,VALID,94.6737,VALID,0,VALID,23.7543,VALID,138,VALID,0.119922,
2008-04-05, 00:49:04,VALID,1009.54,VALID,0,VALID,94.7347,VALID,0,VALID,23.7543,VALID,138,VALID,0.0714844,
2008-04-05, 00:50:04,VALID,1009.53,VALID,0,VALID,94.7195,VALID,0,VALID,23.7135,VALID,138,VALID,0.145703,
2008-04-05, 00:51:04,VALID,1009.56,VALID,0,VALID,94.7881,VALID,0,VALID,23.7153,VALID,138,VALID,0.207422,
2008-04-05, 00:52:04,VALID,1009.53,VALID,0,VALID,94.8873,VALID,0,VALID,23.7153,VALID,138,VALID,0.282813,
2008-04-05, 00:53:04,VALID,1009.52,VALID,0,VALID,94.9483,VALID,0,VALID,23.7135,VALID,184,VALID,0.222266,
2008-04-05, 00:54:04,VALID,1009.51,VALID,0,VALID,94.9788,VALID,0,VALID,23.694,VALID,184,VALID,0.221875,
2008-04-05, 00:55:04,VALID,1009.46,VALID,0,VALID,95.0093,VALID,0,VALID,23.7543,VALID,184,VALID,0.234375,
2008-04-05, 00:56:04,VALID,1009.48,VALID,0,VALID,95.0398,VALID,0,VALID,23.7135,VALID,184,VALID,0.207422,
2008-04-05, 00:57:04,VALID,1009.47,VALID,0,VALID,95.0093,VALID,0,VALID,23.733,VALID,184,VALID,0.178906,
2008-04-05, 00:58:04,VALID,1009.48,VALID,0,VALID,94.8644,VALID,0.105969,VALID,23.6727,VALID,184,VALID,0.0210938,
2008-04-05, 00:59:04,VALID,1009.48,VALID,0,VALID,94.8186,VALID,0.105969,VALID,23.6745,VALID,184,VALID,0,
2008-04-05, 01:00:04,VALID,1009.47,VALID,0,VALID,94.7957,VALID,0.105969,VALID,23.6338,VALID,184,VALID,0,
2008-04-05, 01:01:04,VALID,1009.47,VALID,0,VALID,94.7729,VALID,0,VALID,23.5948,VALID,184,VALID,0,
2008-04-05, 01:02:04,VALID,1009.45,VALID,0,VALID,94.8262,VALID,0.105969,VALID,23.5753,VALID,184,VALID,0,
2008-04-05, 01:03:04,VALID,1009.42,VALID,0,VALID,94.8796,VALID,0.105969,VALID,23.5753,VALID,184,VALID,0,
2008-04-05, 01:04:04,VALID,1009.39,VALID,0,VALID,94.933,VALID,0.105969,VALID,23.5576,VALID,184,VALID,0,
2008-04-05, 01:05:04,VALID,1009.35,VALID,0,VALID,95.0169,VALID,0.105969,VALID,23.5771,VALID,184,VALID,0,
2008-04-05, 01:06:04,VALID,1009.32,VALID,0,VALID,95.0931,VALID,0,VALID,23.5753,VALID,184,VALID,0,
2008-04-05, 01:07:04,VALID,1009.33,VALID,0,VALID,95.1542,VALID,0.105969,VALID,23.5576,VALID,184,VALID,0,
2008-04-05, 01:08:04,VALID,1009.31,VALID,0,VALID,95.1923,VALID,0.105969,VALID,23.5558,VALID,184,VALID,0,
2008-04-05, 01:09:04,VALID,1009.27,VALID,0,VALID,95.1999,VALID,0.105969,VALID,23.5186,VALID,184,VALID,0,
2008-04-05, 01:10:04,VALID,1009.28,VALID,0,VALID,95.2075,VALID,0.105969,VALID,23.5381,VALID,184,VALID,0,
2008-04-05, 01:11:04,VALID,1009.27,VALID,0,VALID,95.2304,VALID,0,VALID,23.5204,VALID,184,VALID,0,
2008-04-05, 01:12:04,VALID,1009.26,VALID,0,VALID,95.2152,VALID,0,VALID,23.4815,VALID,184,VALID,0,
2008-04-05, 01:13:04,VALID,1009.27,VALID,0,VALID,95.2304,VALID,0,VALID,23.4815,VALID,184,VALID,0.188672,
2008-04-05, 01:14:04,VALID,1009.24,VALID,0,VALID,95.2457,VALID,0,VALID,23.4407,VALID,184,VALID,0.200781,
2008-04-05, 01:15:04,VALID,1009.27,VALID,0,VALID,95.238,VALID,0,VALID,23.4425,VALID,184,VALID,0.263672,
2008-04-05, 01:16:04,VALID,1009.23,VALID,0,VALID,95.2838,VALID,0,VALID,23.423,VALID,184,VALID,0.265234,
2008-04-05, 01:17:04,VALID,1009.23,VALID,0,VALID,95.3524,VALID,0,VALID,23.4035,VALID,184,VALID,0.270703,
2008-04-05, 01:18:04,VALID,1009.21,VALID,0,VALID,95.3143,VALID,0,VALID,23.384,VALID,184,VALID,0.187109,
2008-04-05, 01:19:04,VALID,1009.18,VALID,0,VALID,95.3143,VALID,0,VALID,23.384,VALID,184,VALID,0.182422,
2008-04-05, 01:20:04,VALID,1009.19,VALID,0,VALID,95.3448,VALID,0,VALID,23.3451,VALID,184,VALID,0.302344,
2008-04-05, 01:21:04,VALID,1009.16,VALID,0,VALID,95.4516,VALID,0,VALID,23.3451,VALID,184,VALID,0.330078,
2008-04-05, 01:22:04,VALID,1009.16,VALID,0,VALID,95.5049,VALID,0,VALID,23.3451,VALID,178,VALID,0.341016,
2008-04-05, 01:23:04,VALID,1009.14,VALID,0,VALID,95.5354,VALID,0,VALID,23.2848,VALID,113,VALID,0.345313,
2008-04-05, 01:24:04,VALID,1009.14,VALID,0,VALID,95.6041,VALID,0,VALID,23.3256,VALID,36,VALID,0.366797,
2008-04-05, 01:25:04,VALID,1009.1,VALID,0,VALID,95.5888,VALID,0,VALID,23.2866,VALID,36,VALID,0.3375,
2008-04-05, 01:26:04,VALID,1009.14,VALID,0,VALID,95.5888,VALID,0,VALID,23.2671,VALID,36,VALID,0.269141,
2008-04-05, 01:27:04,VALID,1009.1,VALID,0,VALID,95.6269,VALID,0,VALID,23.2476,VALID,36,VALID,0.276172,
2008-04-05, 01:28:04,VALID,1009.09,VALID,0,VALID,95.6117,VALID,0,VALID,23.2476,VALID,36,VALID,0.223047,
2008-04-05, 01:29:04,VALID,1009.07,VALID,0,VALID,95.6269,VALID,0,VALID,23.1874,VALID,36,VALID,0.132031,
2008-04-05, 01:30:04,VALID,1009.06,VALID,0,VALID,95.6346,VALID,0,VALID,23.1697,VALID,36,VALID,0.119141,
2008-04-05, 01:31:04,VALID,1009.07,VALID,0,VALID,95.6498,VALID,0,VALID,23.1679,VALID,36,VALID,0.124219,
2008-04-05, 01:32:04,VALID,1009.03,VALID,0,VALID,95.6422,VALID,0,VALID,23.1697,VALID,36,VALID,0.124219,
2008-04-05, 01:33:04,VALID,1009.04,VALID,0,VALID,95.7261,VALID,0,VALID,23.1485,VALID,36,VALID,0.121484,
2008-04-05, 01:34:04,VALID,1009.03,VALID,0,VALID,95.7337,VALID,0,VALID,23.129,VALID,36,VALID,0.209766,
2008-04-05, 01:35:04,VALID,1009.01,VALID,0,VALID,95.7185,VALID,0,VALID,23.1307,VALID,36,VALID,0.219531,
2008-04-05, 01:36:04,VALID,1009.02,VALID,0,VALID,95.749,VALID,0,VALID,23.1112,VALID,36,VALID,0.26875,
2008-04-05, 01:37:04,VALID,1009,VALID,0,VALID,95.7795,VALID,0,VALID,23.1112,VALID,36,VALID,0.249609,
2008-04-05, 01:38:04,VALID,1009,VALID,0,VALID,95.7947,VALID,0,VALID,23.1112,VALID,36,VALID,0.234766,
2008-04-05, 01:39:04,VALID,1009.01,VALID,0,VALID,95.8557,VALID,0,VALID,23.0918,VALID,43,VALID,0.327344,
2008-04-05, 01:40:04,VALID,1009.01,VALID,0,VALID,95.8939,VALID,0,VALID,23.0918,VALID,42,VALID,0.352734,
2008-04-05, 01:41:04,VALID,1009.01,VALID,0,VALID,95.9472,VALID,0.105969,VALID,23.1095,VALID,43,VALID,0.342187,
2008-04-05, 01:42:04,VALID,1009,VALID,0,VALID,95.9167,VALID,0.105969,VALID,23.0688,VALID,43,VALID,0.297266,
2008-04-05, 01:43:04,VALID,1008.97,VALID,0,VALID,95.9777,VALID,0.105969,VALID,23.1095,VALID,43,VALID,0.286328,
2008-04-05, 01:44:04,VALID,1008.97,VALID,0,VALID,95.9777,VALID,0.105969,VALID,23.09,VALID,43,VALID,0.163672,
2008-04-05, 01:45:04,VALID,1008.95,VALID,0,VALID,95.9777,VALID,0.105969,VALID,23.0883,VALID,43,VALID,0.184375,
2008-04-05, 01:46:04,VALID,1008.94,VALID,0,VALID,95.9625,VALID,0.105969,VALID,23.0688,VALID,43,VALID,0.0660156,
2008-04-05, 01:47:04,VALID,1008.92,VALID,0,VALID,95.9625,VALID,0.105969,VALID,23.0705,VALID,43,VALID,0,
2008-04-05, 01:48:04,VALID,1008.92,VALID,0,VALID,95.9625,VALID,0.105969,VALID,23.0493,VALID,43,VALID,0.268359,
2008-04-05, 01:49:04,VALID,1008.9,VALID,0,VALID,96.0082,VALID,0.105969,VALID,23.0705,VALID,61,VALID,0.133203,
2008-04-05, 01:50:04,VALID,1008.89,VALID,0,VALID,96.0464,VALID,0.105969,VALID,23.09,VALID,61,VALID,0.123047,
2008-04-05, 01:51:04,VALID,1008.89,VALID,0,VALID,96.0464,VALID,0,VALID,23.0688,VALID,61,VALID,0,
2008-04-05, 01:52:04,VALID,1008.89,VALID,0,VALID,96.0311,VALID,0.105969,VALID,23.0688,VALID,61,VALID,0.178906,
2008-04-05, 01:53:04,VALID,1008.85,VALID,0,VALID,96.0235,VALID,0.105969,VALID,23.0493,VALID,61,VALID,0.196484,
2008-04-05, 01:54:04,VALID,1008.85,VALID,0,VALID,96.054,VALID,0.105969,VALID,23.0705,VALID,61,VALID,0.110937,
2008-04-05, 01:55:04,VALID,1008.81,VALID,0,VALID,96.0616,VALID,0.105969,VALID,23.0705,VALID,61,VALID,0.0210938,
2008-04-05, 01:56:04,VALID,1008.81,VALID,0,VALID,96.054,VALID,0,VALID,23.0511,VALID,61,VALID,0,
2008-04-05, 01:57:04,VALID,1008.83,VALID,0,VALID,96.0387,VALID,0,VALID,23.0511,VALID,61,VALID,0.216016,
2008-04-05, 01:58:04,VALID,1008.81,VALID,0,VALID,96.0387,VALID,0,VALID,23.0333,VALID,61,VALID,0.167578,
2008-04-05, 01:59:04,VALID,1008.82,VALID,0,VALID,96.0311,VALID,0,VALID,23.0316,VALID,61,VALID,0.0910156,
2008-04-05, 02:00:04,VALID,1008.83,VALID,0,VALID,96.0311,VALID,0,VALID,22.9926,VALID,61,VALID,0,
2008-04-05, 02:01:04,VALID,1008.83,VALID,0,VALID,96.0159,VALID,0,VALID,22.9926,VALID,61,VALID,0,
2008-04-05, 02:02:04,VALID,1008.81,VALID,0,VALID,96.054,VALID,0,VALID,22.9926,VALID,61,VALID,0.194922,
2008-04-05, 02:03:04,VALID,1008.81,VALID,0,VALID,96.0692,VALID,0,VALID,22.9943,VALID,61,VALID,0.0503906,
2008-04-05, 02:04:04,VALID,1008.79,VALID,0,VALID,96.0997,VALID,0,VALID,23.0138,VALID,61,VALID,0.127344,
2008-04-05, 02:05:04,VALID,1008.75,VALID,0,VALID,96.0921,VALID,0,VALID,22.9342,VALID,61,VALID,0.285156,
2008-04-05, 02:06:04,VALID,1008.72,VALID,0,VALID,96.1074,VALID,0,VALID,22.9943,VALID,61,VALID,0.210547,
2008-04-05, 02:07:04,VALID,1008.72,VALID,0,VALID,96.1226,VALID,0,VALID,23.0138,VALID,61,VALID,0.144922,
2008-04-05, 02:08:04,VALID,1008.7,VALID,0,VALID,96.1455,VALID,0,VALID,23.0333,VALID,61,VALID,0.176172,
2008-04-05, 02:09:04,VALID,1008.71,VALID,0,VALID,96.1302,VALID,0,VALID,22.9749,VALID,61,VALID,0.199609,
2008-04-05, 02:10:04,VALID,1008.7,VALID,0,VALID,96.1302,VALID,0,VALID,22.9926,VALID,61,VALID,0.154297,
2008-04-05, 02:11:04,VALID,1008.66,VALID,0,VALID,96.1531,VALID,0,VALID,23.0138,VALID,61,VALID,0.208594,
2008-04-05, 02:12:04,VALID,1008.66,VALID,0,VALID,96.1531,VALID,0,VALID,22.9926,VALID,61,VALID,0.185937,
2008-04-05, 02:13:04,VALID,1008.68,VALID,0,VALID,96.1379,VALID,0,VALID,23.0121,VALID,61,VALID,0.224609,
2008-04-05, 02:14:04,VALID,1008.65,VALID,0,VALID,96.1379,VALID,0,VALID,22.9926,VALID,61,VALID,0.112891,
2008-04-05, 02:15:04,VALID,1008.63,VALID,0,VALID,96.115,VALID,0,VALID,22.9943,VALID,61,VALID,0.201172,
2008-04-05, 02:16:04,VALID,1008.62,VALID,0,VALID,96.1074,VALID,0,VALID,23.0316,VALID,61,VALID,0.144141,
2008-04-05, 02:17:04,VALID,1008.65,VALID,0,VALID,96.0845,VALID,0,VALID,22.9731,VALID,61,VALID,0.119531,
2008-04-05, 02:18:04,VALID,1008.61,VALID,0,VALID,96.0616,VALID,0,VALID,22.9749,VALID,61,VALID,0.110156,
2008-04-05, 02:19:04,VALID,1008.6,VALID,0,VALID,96.0464,VALID,0.105969,VALID,22.9342,VALID,61,VALID,0.0253906,
2008-04-05, 02:20:04,VALID,1008.6,VALID,0,VALID,96.0387,VALID,0,VALID,22.9147,VALID,61,VALID,0.137891,
2008-04-05, 02:21:04,VALID,1008.59,VALID,0,VALID,96.054,VALID,0,VALID,22.8952,VALID,61,VALID,0.210547,
2008-04-05, 02:22:04,VALID,1008.57,VALID,0,VALID,96.0997,VALID,0,VALID,22.8952,VALID,61,VALID,0.446484,
2008-04-05, 02:23:04,VALID,1008.58,VALID,0,VALID,96.0387,VALID,0,VALID,22.8562,VALID,61,VALID,0.225781,
2008-04-05, 02:24:04,VALID,1008.56,VALID,0,VALID,96.0692,VALID,0,VALID,22.8368,VALID,61,VALID,0.277734,
2008-04-05, 02:25:04,VALID,1008.58,VALID,0,VALID,96.0616,VALID,0,VALID,22.858,VALID,61,VALID,0.205078,
2008-04-05, 02:26:04,VALID,1008.56,VALID,0,VALID,96.1074,VALID,0,VALID,22.8562,VALID,62,VALID,0.471484,
2008-04-05, 02:27:04,VALID,1008.55,VALID,0,VALID,96.1989,VALID,0,VALID,22.8757,VALID,65,VALID,0.507422,
2008-04-05, 02:28:04,VALID,1008.56,VALID,0,VALID,96.237,VALID,0.105969,VALID,22.9147,VALID,65,VALID,0.486328,
2008-04-05, 02:29:04,VALID,1008.53,VALID,0,VALID,96.237,VALID,0,VALID,22.9147,VALID,96,VALID,0.576563,
2008-04-05, 02:30:04,VALID,1008.55,VALID,0,VALID,96.2523,VALID,0,VALID,22.9342,VALID,95,VALID,0.341406,
2008-04-05, 02:31:04,VALID,1008.56,VALID,0,VALID,96.2218,VALID,0,VALID,22.9342,VALID,89,VALID,0.431641,
2008-04-05, 02:32:04,VALID,1008.56,VALID,0,VALID,96.176,VALID,0,VALID,22.9147,VALID,89,VALID,0.145703,
2008-04-05, 02:33:04,VALID,1008.56,VALID,0,VALID,96.1608,VALID,0,VALID,22.9164,VALID,88,VALID,0.245703,
2008-04-05, 02:34:04,VALID,1008.59,VALID,0,VALID,96.1302,VALID,0,VALID,22.8952,VALID,87,VALID,0.255469,
2008-04-05, 02:35:04,VALID,1008.57,VALID,0,VALID,96.1379,VALID,0,VALID,22.8757,VALID,83,VALID,0.226953,
2008-04-05, 02:36:04,VALID,1008.57,VALID,0,VALID,96.1455,VALID,0,VALID,22.8562,VALID,83,VALID,0.188281,
2008-04-05, 02:37:04,VALID,1008.55,VALID,0,VALID,96.1455,VALID,0,VALID,22.8757,VALID,83,VALID,0.226563,
2008-04-05, 02:38:04,VALID,1008.55,VALID,0,VALID,96.1684,VALID,0,VALID,22.8562,VALID,83,VALID,0.305859,
2008-04-05, 02:39:04,VALID,1008.53,VALID,0,VALID,96.1302,VALID,0,VALID,22.8562,VALID,81,VALID,0.33125,
2008-04-05, 02:40:04,VALID,1008.53,VALID,0,VALID,96.0921,VALID,0,VALID,22.8368,VALID,31,VALID,0.396094,
2008-04-05, 02:41:04,VALID,1008.53,VALID,0,VALID,96.1226,VALID,0,VALID,22.8173,VALID,9,VALID,0.485547,
2008-04-05, 02:42:04,VALID,1008.56,VALID,0,VALID,96.0769,VALID,0,VALID,22.7995,VALID,2,VALID,0.391406,
2008-04-05, 02:43:04,VALID,1008.55,VALID,0,VALID,96.1913,VALID,0.105969,VALID,22.8173,VALID,21,VALID,0.5375,
2008-04-05, 02:44:04,VALID,1008.57,VALID,0,VALID,96.2218,VALID,0,VALID,22.8173,VALID,29,VALID,0.177344,
2008-04-05, 02:45:04,VALID,1008.6,VALID,0,VALID,96.1989,VALID,0,VALID,22.8385,VALID,7,VALID,0.309375,
2008-04-05, 02:46:04,VALID,1008.65,VALID,0,VALID,96.2294,VALID,0,VALID,22.8173,VALID,358,VALID,0.341016,
2008-04-05, 02:47:04,VALID,1008.66,VALID,0,VALID,96.2446,VALID,0,VALID,22.8562,VALID,355,VALID,0.258984,
2008-04-05, 02:48:04,VALID,1008.65,VALID,0,VALID,96.237,VALID,0,VALID,22.858,VALID,325,VALID,0.368359,
2008-04-05, 02:49:04,VALID,1008.68,VALID,0,VALID,96.2523,VALID,0,VALID,22.8775,VALID,321,VALID,0.223828,
2008-04-05, 02:50:04,VALID,1008.69,VALID,0,VALID,96.2675,VALID,0,VALID,22.8757,VALID,320,VALID,0.144141,
2008-04-05, 02:51:04,VALID,1008.7,VALID,0,VALID,96.2675,VALID,0,VALID,22.8562,VALID,320,VALID,0.09375,
2008-04-05, 02:52:04,VALID,1008.72,VALID,0,VALID,96.2751,VALID,0.105969,VALID,22.8952,VALID,320,VALID,0.141406,
2008-04-05, 02:53:04,VALID,1008.75,VALID,0,VALID,96.2751,VALID,0,VALID,22.8757,VALID,321,VALID,0,
2008-04-05, 02:54:04,VALID,1008.77,VALID,0,VALID,96.2218,VALID,0,VALID,22.8952,VALID,321,VALID,0.174609,
2008-04-05, 02:55:04,VALID,1008.78,VALID,0,VALID,96.1531,VALID,0,VALID,22.8562,VALID,321,VALID,0.0238281,
2008-04-05, 02:56:04,VALID,1008.78,VALID,0,VALID,96.1074,VALID,0,VALID,22.8173,VALID,320,VALID,0,
2008-04-05, 02:57:04,VALID,1008.78,VALID,0,VALID,96.0997,VALID,0,VALID,22.7978,VALID,321,VALID,0,
2008-04-05, 02:58:04,VALID,1008.77,VALID,0,VALID,96.0997,VALID,0.105969,VALID,22.7978,VALID,320,VALID,0.203906,
2008-04-05, 02:59:04,VALID,1008.81,VALID,0,VALID,96.176,VALID,0,VALID,22.7978,VALID,321,VALID,0.211328,
2008-04-05, 03:00:04,VALID,1008.81,VALID,0,VALID,96.2141,VALID,0,VALID,22.7978,VALID,321,VALID,0.177344,
2008-04-05, 03:01:04,VALID,1008.82,VALID,0,VALID,96.2141,VALID,0,VALID,22.8173,VALID,321,VALID,0.230859,
2008-04-05, 03:02:04,VALID,1008.83,VALID,0,VALID,96.1989,VALID,0,VALID,22.7978,VALID,320,VALID,0.113672,
2008-04-05, 03:03:04,VALID,1008.82,VALID,0,VALID,96.1836,VALID,0,VALID,22.7783,VALID,321,VALID,0.0160156,
2008-04-05, 03:04:04,VALID,1008.83,VALID,0,VALID,96.1684,VALID,0,VALID,22.7588,VALID,320,VALID,0,
2008-04-05, 03:05:04,VALID,1008.82,VALID,0,VALID,96.1531,VALID,0,VALID,22.7588,VALID,321,VALID,0,
2008-04-05, 03:06:04,VALID,1008.81,VALID,0,VALID,96.1455,VALID,0.105969,VALID,22.7783,VALID,321,VALID,0,
2008-04-05, 03:07:04,VALID,1008.82,VALID,0,VALID,96.1226,VALID,0,VALID,22.7004,VALID,320,VALID,0,
2008-04-05, 03:08:04,VALID,1008.85,VALID,0,VALID,96.115,VALID,0,VALID,22.7004,VALID,320,VALID,0,
2008-04-05, 03:09:04,VALID,1008.84,VALID,0,VALID,96.115,VALID,0,VALID,22.6614,VALID,320,VALID,0,
2008-04-05, 03:10:04,VALID,1008.87,VALID,0,VALID,96.0921,VALID,0,VALID,22.6225,VALID,321,VALID,0,
2008-04-05, 03:11:04,VALID,1008.9,VALID,0,VALID,96.0845,VALID,0,VALID,22.603,VALID,320,VALID,0,
2008-04-05, 03:12:04,VALID,1008.93,VALID,0,VALID,96.1531,VALID,0,VALID,22.5835,VALID,320,VALID,0,
2008-04-05, 03:13:04,VALID,1008.99,VALID,0,VALID,96.1608,VALID,0,VALID,22.5835,VALID,321,VALID,0,
2008-04-05, 03:14:04,VALID,1008.99,VALID,0,VALID,96.1989,VALID,0,VALID,22.564,VALID,321,VALID,0,
2008-04-05, 03:15:04,VALID,1009.03,VALID,0,VALID,96.237,VALID,0,VALID,22.603,VALID,321,VALID,0,
2008-04-05, 03:16:04,VALID,1009,VALID,0,VALID,96.2751,VALID,0,VALID,22.603,VALID,321,VALID,0,
2008-04-05, 03:17:04,VALID,1009.02,VALID,0,VALID,96.3056,VALID,0,VALID,22.6225,VALID,321,VALID,0,
2008-04-05, 03:18:04,VALID,1009.01,VALID,0,VALID,96.3209,VALID,0,VALID,22.6013,VALID,321,VALID,0,
2008-04-05, 03:19:04,VALID,1008.96,VALID,0,VALID,96.2828,VALID,0,VALID,22.6225,VALID,320,VALID,0.142578,
2008-04-05, 03:20:04,VALID,1008.97,VALID,0,VALID,96.2751,VALID,0.105969,VALID,22.6225,VALID,321,VALID,0.104687,
2008-04-05, 03:21:04,VALID,1008.99,VALID,0,VALID,96.2904,VALID,0,VALID,22.603,VALID,321,VALID,0.105078,
2008-04-05, 03:22:04,VALID,1008.98,VALID,0,VALID,96.298,VALID,0,VALID,22.603,VALID,321,VALID,0.0578125,
2008-04-05, 03:23:04,VALID,1009,VALID,0,VALID,96.3056,VALID,0.105969,VALID,22.6225,VALID,321,VALID,0,
2008-04-05, 03:24:04,VALID,1009,VALID,0,VALID,96.2523,VALID,0,VALID,22.5835,VALID,321,VALID,0,
2008-04-05, 03:25:04,VALID,1008.97,VALID,0,VALID,96.2828,VALID,0,VALID,22.564,VALID,321,VALID,0,
2008-04-05, 03:26:04,VALID,1008.97,VALID,0,VALID,96.2904,VALID,0,VALID,22.564,VALID,320,VALID,0,
2008-04-05, 03:27:04,VALID,1008.98,VALID,0,VALID,96.3056,VALID,0,VALID,22.5852,VALID,321,VALID,0,
2008-04-05, 03:28:04,VALID,1008.94,VALID,0,VALID,96.3361,VALID,0,VALID,22.5446,VALID,321,VALID,0.0222656,
2008-04-05, 03:29:04,VALID,1008.95,VALID,0,VALID,96.3971,VALID,0,VALID,22.564,VALID,321,VALID,0,
2008-04-05, 03:30:04,VALID,1008.93,VALID,0,VALID,96.3971,VALID,0,VALID,22.5835,VALID,320,VALID,0.109766,
2008-04-05, 03:31:04,VALID,1008.93,VALID,0,VALID,96.3743,VALID,0,VALID,22.564,VALID,320,VALID,0.210156,
2008-04-05, 03:32:04,VALID,1008.92,VALID,0,VALID,96.359,VALID,0,VALID,22.5835,VALID,321,VALID,0.189453,
2008-04-05, 03:33:04,VALID,1008.93,VALID,0,VALID,96.359,VALID,0,VALID,22.564,VALID,321,VALID,0.194922,
2008-04-05, 03:34:04,VALID,1008.93,VALID,0,VALID,96.3743,VALID,0,VALID,22.564,VALID,321,VALID,0.186719,
2008-04-05, 03:35:04,VALID,1008.93,VALID,0,VALID,96.3743,VALID,0,VALID,22.603,VALID,321,VALID,0.200781,
2008-04-05, 03:36:04,VALID,1008.91,VALID,0,VALID,96.359,VALID,0,VALID,22.5658,VALID,320,VALID,0.204688,
2008-04-05, 03:37:04,VALID,1008.94,VALID,0,VALID,96.359,VALID,0,VALID,22.5251,VALID,321,VALID,0.110156,
2008-04-05, 03:38:04,VALID,1008.92,VALID,0,VALID,96.359,VALID,0,VALID,22.5056,VALID,321,VALID,0,
2008-04-05, 03:39:04,VALID,1008.93,VALID,0,VALID,96.3361,VALID,0,VALID,22.5056,VALID,321,VALID,0,
2008-04-05, 03:40:04,VALID,1008.92,VALID,0,VALID,96.3285,VALID,0,VALID,22.4667,VALID,320,VALID,0,
2008-04-05, 03:41:04,VALID,1008.93,VALID,0,VALID,96.2904,VALID,0,VALID,22.4472,VALID,321,VALID,0,
2008-04-05, 03:42:04,VALID,1008.92,VALID,0,VALID,96.359,VALID,0,VALID,22.4277,VALID,321,VALID,0,
2008-04-05, 03:43:04,VALID,1008.92,VALID,0,VALID,96.4048,VALID,0,VALID,22.4472,VALID,320,VALID,0,
2008-04-05, 03:44:04,VALID,1008.93,VALID,0,VALID,96.4353,VALID,0,VALID,22.4472,VALID,321,VALID,0.211328,
2008-04-05, 03:45:04,VALID,1008.95,VALID,0,VALID,96.4582,VALID,0,VALID,22.4667,VALID,321,VALID,0.245703,